This demonstration page uses our WeatherBlox Daily Observations layout. Learn more.

Left ArrowRight Arrow

Hourly Observations for April 25, 2022

Temp ( °F °C ) Dew Point ( °F °C ) Humidity (%) Winds ( mph kmh ) Pressure ( in mb ) Visibility ( mi km ) Precip ( " mm )
12:52 am 00:52 Cloudy with Light Rain 53 11.7 50 10 89 89 SSE 6 9 30.03 1017 10 16 0.01 0.25
1:52 am 01:52 Cloudy with Light Rain 53 11.7 51 10.6 93 93 E 3 6 30.03 1017 10 16 0.02 0.51
2:52 am 02:52 Cloudy 53 11.7 51 10.6 93 93 NNW 13 20 30.02 1017 10 16 0.00 0.00
3:52 am 03:52 Cloudy 52 11.1 46 7.8 80 80 N 10 17 30.04 1017 10 16 0.00 0.00
4:52 am 04:52 Cloudy 50 10 41 5 71 71 N 14 22 30.08 1019 10 16 0.00 0.00
5:52 am 05:52 Mostly Cloudy 47 8.3 39 3.9 74 74 NNW 14 22 30.11 1020 10 16 0.00 0.00
6:52 am 06:52 Sunny 45 7.2 38 3.3 77 77 NNW 9 15 30.15 1021 10 16 0.00 0.00
7:52 am 07:52 Sunny 46 7.8 37 2.8 71 71 NNW 14 22 30.18 1022 10 16 0.00 0.00
8:52 am 08:52 Sunny 48 8.9 37 2.8 66 66 NNW 15 24 30.19 1022 10 16 0.00 0.00
9:52 am 09:52 Sunny 50 10 37 2.8 61 61 NNW 16 26 30.19 1022 10 16 0.00 0.00
10:52 am 10:52 Sunny 51 10.6 37 2.8 59 59 NNW 12 19 30.21 1023 10 16 0.00 0.00
11:52 am 11:52 Sunny 52 11.1 38 3.3 59 59 NW 10 17 30.24 1024 10 16 0.00 0.00
12:52 pm 12:52 Sunny 53 11.7 38 3.3 57 57 NNW 14 22 30.23 1024 10 16 0.00 0.00
1:52 pm 13:52 Sunny 54 12.2 39 3.9 57 57 NW 9 15 30.22 1024 10 16 0.00 0.00
2:52 pm 14:52 Sunny 56 13.3 39 3.9 53 53 NNW 13 20 30.22 1024 10 16 0.00 0.00
3:52 pm 15:52 Sunny 58 14.4 39 3.9 50 50 NW 15 24 30.22 1023 10 16 0.00 0.00
4:52 pm 16:52 Sunny 58 14.4 37 2.8 46 46 NW 14 22 30.22 1023 10 16 0.00 0.00
5:52 pm 17:52 Sunny 58 14.4 38 3.3 48 48 NW 14 22 30.22 1023 10 16 0.00 0.00
6:52 pm 18:52 Sunny 56 13.3 37 2.8 49 49 NW 8 13 30.24 1024 10 16 0.00 0.00
7:52 pm 19:52 Sunny 53 11.7 38 3.3 57 57 NW 7 11 30.26 1025 10 16 0.00 0.00
8:52 pm 20:52 Clear 49 9.4 38 3.3 66 66 NW 7 11 30.28 1026 10 16 0.00 0.00
9:52 pm 21:52 Clear 50 10 37 2.8 61 61 NW 3 6 30.30 1026 10 16 0.00 0.00
10:52 pm 22:52 Clear 46 7.8 37 2.8 71 71 Calm 30.31 1026 10 16 0.00 0.00
11:52 pm 23:52 Clear 44 6.7 37 2.8 76 76 Calm 30.32 1027 10 16 0.00 0.00

Powered by AerisWeather